sat.trackr.live / text

‹ back to catalog

STARLINK-3629

NORAD 51774 · 2022-017G

PAYLOAD ACTIVE UNKNOWN

§ Identity

Operator
Country
US
Launch date
2022-02-25
Launch site
AFWTR
Launch vehicle
Mass (kg)
RCS (m²)

Purposes: comms

External: N2YO · Heavens-Above · Gunter

§ Orbital elements

Epoch: 2026-09-20T04:32:21.347808Z

Period
93.85 min
Inclination
53.1620°
Eccentricity
0.0001086
Mean motion
15.34407567 rev/d
Perigee alt
461.9 km
Apogee alt
463.4 km
Semi-major
6,840.8 km
B*
8.8231e-5
RAAN
179.5113°
Arg perigee
92.4436°
Mean anomaly
267.6691°
Rev number
25,201

§ Raw data

STARLINK-36291 51774U 22017G   26263.18913597  .00002607  00000+0  88231-4 0  99982 51774  53.1620 179.5113 0001086  92.4436 267.6691 15.34407567252012

JSON: /api/v1/satellites/51774 · /tle

For live sub-satellite position, see the globe view (requires WebGL).

§ Visibility from observer

Set your observer location to see the next 7 days of passes ≥ 10°. The values pass through the URL so the page stays shareable.

No JS? Fill the form by hand. The geolocation button needs JavaScript.